Wind_Speed
34 34 34 34 34 33 33 32 33 33 32 32 31 30 30 29 29 29 29 29 29 28 28 27 27 26 26 25 25 24 24 25 25 26 26 27 28 28 28 26 24 23 22 23 24 24 23 23 22 19 18 18 19 18 17 17 19 23 29 34 38 39 37 34 35 37 39 40 40 40 39 39 38 38 38 40 41 41 41 39 38 37 36 35 34 33
34 34 34 34 34 34 33 32 32 33 33 33 33 32 32 31 31 30 29 29 29 29 29 29 28 27 27 26 25 25 24 24 25 25 25 26 27 27 28 27 26 24 22 22 22 22 23 23 23 22 19 19 19 19 18 17 17 19 23 29 35 39 39 37 35 36 39 41 41 41 41 40 39 39 39 40 41 41 41 40 39 39 38 37 36 35
34 35 34 34 34 34 34 33 33 33 33 34 33 33 33 33 32 32 31 31 30 30 30 30 30 29 28 27 26 25 25 24 24 24 25 25 26 26 27 27 27 25 23 22 21 21 21 22 22 22 21 20 19 19 19 18 17 16 18 23 29 34 37 37 37 37 39 41 42 42 42 41 40 40 40 41 41 42 41 41 41 41 40 40 39 37
34 34 35 35 35 35 34 34 34 34 33 33 33 33 33 33 33 33 32 32 32 31 31 30 30 30 29 28 27 26 25 25 24 24 24 24 24 25 26 26 27 27 25 23 21 20 20 20 21 21 21 20 19 19 19 18 17 16 16 18 22 27 31 33 35 36 38 40 42 43 42 42 41 41 41 42 42 42 42 42 42 42 42 41 40 39
33 33 34 35 35 35 35 34 34 34 34 34 33 33 33 34 34 33 33 32 32 32 32 31 31 31 30 30 29 28 27 26 25 24 24 23 23 23 24 25 26 27 27 25 23 21 20 20 19 19 19 18 18 18 18 17 17 16 16 16 18 20 24 27 30 33 35 37 40 42 42 42 42 42 42 43 43 43 43 43 43 43 43 43 42 41
31 32 33 33 34 35 35 35 35 35 35 34 34 34 34 34 34 34 34 33 33 33 33 32 32 31 31 31 31 30 29 28 26 25 24 23 23 22 23 23 24 26 27 27 25 23 21 20 19 19 18 17 17 17 17 18 18 17 17 16 17 18 21 24 27 30 32 33 36 39 41 42 42 42 42 42 43 43 44 44 45 45 45 44 44 43
30 30 31 32 33 33 34 34 34 35 35 36 36 35 35 34 34 34 34 34 34 34 33 32 32 31 31 31 32 32 31 30 28 27 25 24 23 22 22 22 23 24 25 26 26 25 23 21 20 19 19 19 18 17 17 18 19 20 19 19 18 18 20 22 25 28 29 30 33 36 39 41 41 41 41 41 42 43 44 45 46 46 46 46 45 44
29 30 30 30 31 32 33 33 33 33 34 35 36 37 37 36 35 35 34 34 34 34 34 33 32 31 31 32 32 33 33 32 31 29 27 26 24 22 22 21 22 22 23 24 25 25 25 23 21 20 19 19 19 18 17 16 17 20 22 22 20 20 20 21 23 26 28 30 31 33 36 39 40 41 40 40 41 42 44 45 46 47 47 47 47 46
27 28 29 30 30 32 33 33 33 33 33 34 35 36 37 38 38 37 35 34 34 34 34 34 33 32 31 32 33 34 34 34 33 32 31 29 27 25 23 22 22 22 22 22 23 24 25 25 23 21 20 19 20 20 19 17 16 17 20 22 23 22 21 21 22 24 26 30 31 32 34 37 39 40 40 40 40 41 43 45 46 47 48 48 48 47
26 27 28 28 29 30 31 32 32 32 32 33 33 34 35 37 39 39 38 37 35 35 34 35 34 34 33 33 33 34 35 34 34 34 33 32 30 28 26 24 23 22 22 22 22 23 24 25 24 23 21 20 20 20 20 20 18 17 17 19 22 23 24 23 23 23 24 27 31 33 34 36 38 40 41 40 40 41 42 43 45 46 48 49 49 49
26 26 27 28 28 29 29 30 31 31 32 32 32 33 34 35 38 39 40 40 39 37 36 35 35 35 35 35 35 35 35 36 35 34 33 33 31 30 28 26 24 22 22 21 22 23 23 24 25 24 23 21 20 20 20 20 20 19 17 15 16 18 21 23 24 24 25 26 28 31 34 36 38 40 41 41 41 41 41 42 44 46 49 50 50 50
25 26 27 28 28 29 29 30 30 31 31 32 34 35 35 36 36 38 40 41 41 41 40 38 36 35 36 37 38 37 37 37 36 36 35 34 33 32 30 27 25 23 22 21 22 22 23 24 24 25 24 23 22 21 20 20 20 20 18 16 14 14 17 20 23 26 27 27 28 29 32 35 38 40 41 42 42 42 42 43 44 47 49 51 51 50
25 26 27 28 28 29 29 30 30 31 31 32 34 36 37 37 37 37 38 40 40 41 41 41 39 37 36 37 37 38 38 38 37 36 36 35 35 35 34 32 29 27 25 23 23 23 23 24 25 25 25 24 23 22 22 22 21 20 19 16 14 13 13 15 20 24 27 29 29 29 30 32 35 38 41 42 43 44 44 45 46 48 50 51 51 50
25 26 27 28 28 29 29 30 30 31 31 32 32 34 35 36 36 37 38 39 39 39 40 41 41 39 37 37 37 37 38 38 38 37 36 36 36 36 37 36 34 32 29 27 25 24 24 24 25 25 25 25 25 24 23 23 23 23 21 18 16 14 13 13 15 19 23 26 29 30 31 31 33 36 39 41 43 45 46 47 49 50 51 52 53 52
26 27 27 28 29 29 29 29 30 30 30 31 31 32 33 34 35 36 38 39 40 40 40 41 41 40 39 38 37 37 38 38 39 38 37 36 36 37 38 38 37 35 33 31 29 26 24 24 25 25 25 26 26 26 25 24 24 25 25 24 21 18 17 16 15 15 16 20 24 28 31 32 33 34 36 39 42 44 46 48 49 51 52 53 53 53
26 27 28 29 29 29 29 29 29 30 30 30 30 31 32 33 34 35 37 38 40 40 41 42 43 43 42 39 37 37 38 39 40 40 40 38 36 36 38 40 39 38 36 34 32 29 26 25 24 24 25 26 26 27 27 26 26 26 26 27 27 26 23 21 20 17 15 15 18 22 27 30 33 34 35 37 40 43 45 47 49 50 51 51 52 52
26 27 27 29 29 29 29 28 28 29 29 29 29 30 30 32 33 34 35 37 38 39 40 42 43 44 44 42 40 38 39 41 42 42 42 41 38 37 37 40 40 40 38 37 35 33 30 27 25 24 24 25 26 26 27 28 28 27 27 28 29 30 30 28 26 24 20 17 15 15 19 24 29 33 36 38 39 41 44 46 48 50 50 50 49 48
26 27 27 28 29 29 29 28 28 28 28 29 29 29 30 30 31 32 33 35 36 38 39 40 41 42 43 46 44 40 40 42 44 44 44 43 40 38 37 39 40 40 40 39 37 36 34 30 27 25 24 24 25 26 26 27 28 29 29 28 29 30 32 33 32 30 27 24 20 17 15 17 21 27 33 37 40 42 43 45 47 49 50 50 48 47
26 27 27 27 28 28 28 28 28 28 28 28 29 30 30 30 30 31 32 33 34 36 37 39 40 41 42 44 43 41 40 43 45 46 47 46 43 39 38 39 40 40 40 39 39 38 37 35 31 28 25 24 24 25 25 26 27 28 29 30 30 30 32 34 35 35 33 30 26 23 20 18 17 19 25 32 38 42 43 44 46 48 50 51 50 48
27 27 26 27 27 28 28 28 27 27 27 28 28 29 30 31 31 31 31 32 33 34 35 37 38 40 40 42 41 40 39 41 44 46 48 48 46 42 40 40 40 40 40 40 39 39 40 39 36 32 28 25 24 24 25 25 26 27 28 30 30 30 31 33 35 37 36 35 32 29 26 23 21 19 19 23 30 37 42 45 46 47 49 51 51 51
27 27 26 26 27 28 28 28 27 26 26 27 28 29 30 31 32 32 32 33 33 34 35 36 37 38 39 40 40 38 37 40 43 46 47 48 47 45 42 41 41 41 41 41 40 40 41 41 39 36 32 29 26 25 24 25 25 26 27 29 30 30 30 31 34 37 38 38 37 35 32 29 26 23 20 19 21 28 36 42 45 47 48 50 52 53
28 28 27 27 27 28 28 28 27 27 26 27 28 29 30 31 32 33 33 33 34 35 35 36 37 37 37 38 37 36 36 39 41 43 45 46 47 46 43 42 42 42 43 43 42 42 42 42 42 40 37 33 29 26 25 25 25 26 27 28 29 30 30 31 32 35 38 40 40 39 37 35 32 28 24 21 19 20 25 34 41 45 47 48 51 53
28 29 28 28 28 28 28 28 28 27 27 27 27 28 29 30 32 33 33 34 35 35 36 36 36 36 36 36 35 35 35 36 38 40 40 42 44 45 44 43 43 44 45 45 44 43 43 43 43 42 40 37 33 29 26 25 25 26 27 28 28 29 29 30 30 32 35 40 42 43 41 39 36 33 29 25 22 20 20 24 31 39 44 46 48 51
28 28 29 29 28 28 28 29 28 28 28 27 28 28 29 30 31 32 33 34 35 35 36 36 36 36 36 35 34 34 33 34 35 36 36 37 41 45 45 44 44 45 47 46 45 44 44 43 43 43 42 40 37 33 30 27 26 26 27 28 28 28 28 29 29 30 32 35 40 43 44 43 40 37 34 30 26 23 22 21 23 29 37 42 45 47
27 28 28 29 28 28 28 28 28 28 28 28 28 29 30 31 32 33 33 34 34 34 34 34 35 37 37 36 35 33 32 31 33 34 34 36 40 44 45 44 44 44 46 46 45 44 44 44 44 43 43 43 41 39 35 32 29 28 28 28 28 28 28 28 28 28 29 31 35 40 43 44 43 41 38 35 32 28 25 24 23 25 29 35 41 44
27 27 28 28 28 27 27 27 27 27 28 28 29 29 30 31 32 33 33 33 32 31 31 32 34 36 37 37 37 35 32 31 32 33 33 35 39 43 44 43 42 41 43 45 45 45 45 46 46 45 45 44 44 42 40 36 33 30 29 28 29 29 28 28 27 26 26 27 30 34 39 43 44 44 43 40 37 34 31 28 26 26 26 29 35 41
27 27 27 27 27 27 27 27 27 27 28 28 29 29 30 31 32 33 34 34 33 32 31 32 34 36 36 36 36 36 34 32 31 32 33 34 37 40 41 41 39 39 41 44 46 47 47 48 48 47 46 45 44 42 40 38 35 32 30 29 29 29 29 28 27 26 25 25 27 29 33 38 42 44 45 44 42 39 36 33 30 29 27 27 30 36
28 28 28 28 28 28 27 28 28 28 29 29 30 30 30 30 32 34 35 35 34 33 32 32 33 34 34 35 36 37 36 34 31 30 31 32 33 35 38 38 38 39 41 44 47 49 48 48 48 47 45 43 41 40 39 38 36 34 32 31 30 30 30 30 29 28 27 26 27 28 30 33 37 41 44 45 45 43 41 38 35 32 30 28 28 31
29 29 29 29 29 29 29 29 30 30 30 31 31 31 30 30 31 33 34 34 33 33 33 32 33 33 34 35 37 38 37 35 32 29 28 29 31 34 36 37 39 40 41 45 48 49 49 47 45 43 42 41 40 40 40 40 39 38 36 34 32 31 31 31 30 29 28 28 28 28 29 31 34 37 41 44 45 45 43 41 39 36 33 30 29 28
30 30 30 30 30 30 30 30 31 31 31 32 31 31 30 30 31 32 33 33 33 34 34 34 33 33 34 35 35 35 35 34 31 28 28 29 32 35 37 38 39 39 40 41 43 45 47 46 43 40 39 40 41 42 43 43 43 41 39 37 34 33 32 31 31 30 29 29 28 29 29 30 32 34 37 41 44 45 44 43 41 38 36 32 30 29
31 31 32 32 31 31 31 31 31 31 31 31 31 30 30 30 31 31 32 32 33 34 35 35 34 34 34 34 32 31 31 33 32 31 30 31 34 37 38 39 39 39 37 36 34 35 40 44 44 42 41 42 44 45 45 45 44 43 41 39 37 35 33 32 32 32 31 30 29 28 28 29 30 31 33 37 40 43 44 43 42 40 38 35 32 30
32 33 33 33 33 32 32 32 32 32 32 31 31 30 30 30 31 31 32 32 32 33 34 35 35 35 35 35 35 35 35 37 36 34 33 33 35 37 37 38 39 38 37 35 32 30 32 38 44 46 45 45 46 46 46 45 44 42 41 40 38 37 35 34 34 33 33 32 30 29 28 28 29 29 30 32 36 39 42 42 42 41 39 37 35 33
33 34 34 34 33 33 33 33 32 32 32 32 31 31 30 30 30 30 31 31 31 32 33 34 36 36 37 38 38 40 41 40 38 36 34 34 35 37 37 38 38 39 39 38 36 34 34 38 44 47 48 47 46 45 45 45 44 42 41 40 39 38 36 35 35 35 35 34 33 31 29 28 28 28 28 29 31 34 38 40 41 41 40 39 37 35
34 34 34 34 33 33 33 32 32 32 32 31 31 30 30 29 29 29 29 30 30 31 32 33 35 37 38 38 39 40 41 41 39 37 36 36 36 37 37 38 39 40 40 40 39 39 39 41 43 45 46 48 47 46 45 44 44 42 41 40 39 38 37 36 36 36 36 36 35 34 32 30 29 28 28 28 28 30 33 36 39 40 41 40 39 38
33 33 33 33 33 33 33 32 32 31 31 30 30 29 29 28 28 29 29 29 30 30 31 32 34 35 37 38 39 40 42 41 39 37 37 37 37 38 38 39 39 39 38 39 39 39 39 41 42 43 45 47 49 48 46 44 43 43 42 40 38 37 36 35 35 35 36 36 36 35 34 32 31 29 28 28 27 28 30 32 35 38 40 41 41 40
32 32 32 32 32 32 32 32 31 30 30 29 29 28 28 28 28 28 29 29 29 30 30 31 33 34 35 37 38 40 41 40 39 38 38 38 38 38 39 39 39 38 37 39 39 39 39 40 42 43 44 45 47 48 47 46 44 43 43 41 39 37 35 34 34 34 35 36 37 37 36 34 33 31 30 28 28 27 28 29 32 34 37 39 41 41
32 32 31 31 31 31 31 31 30 30 29 29 29 29 28 28 29 29 29 29 29 30 30 31 32 33 34 36 37 39 40 39 39 38 38 38 38 38 39 40 40 39 39 39 38 38 38 39 41 42 44 44 45 45 47 46 45 45 45 43 41 38 36 34 33 33 34 36 37 37 37 36 35 34 32 30 29 28 27 27 29 31 33 36 38 40
30 30 30 30 30 30 30 31 31 31 31 31 31 30 29 30 30 30 31 31 31 31 32 32 33 34 34 35 36 38 38 38 38 38 38 38 38 39 40 41 41 41 40 39 38 37 37 37 38 39 41 43 44 45 46 45 45 46 46 45 43 40 38 36 34 33 34 35 36 36 37 37 36 35 34 33 31 29 28 27 27 28 30 32 35 38
31 31 31 30 30 30 30 31 31 31 30 29 28 27 27 28 29 30 31 31 32 32 33 34 35 35 36 36 36 37 37 37 37 38 38 38 39 39 39 40 40 39 38 37 37 37 38 39 38 39 39 41 43 44 44 44 45 46 46 46 45 43 40 37 35 33 33 34 35 36 36 37 37 36 36 35 33 31 30 28 27 26 27 29 31 34
29 30 30 30 30 29 29 30 29 28 27 26 25 25 25 26 28 30 31 32 33 34 35 36 36 37 37 37 36 36 36 36 36 37 37 38 37 37 37 37 37 37 37 38 39 40 40 40 40 39 38 38 40 42 43 44 45 45 45 45 45 45 42 38 35 33 33 33 34 35 36 37 37 37 37 36 35 33 32 30 28 27 26 26 28 30
29 30 30 30 29 29 29 29 28 27 26 26 26 26 26 27 29 31 34 36 37 38 38 39 39 39 38 37 36 34 34 34 35 36 37 37 37 36 37 38 39 40 40 41 41 40 39 37 36 36 35 36 39 41 43 44 44 44 44 44 44 44 42 39 36 34 33 33 34 34 35 36 37 38 38 37 36 35 33 31 30 28 27 26 26 27
27 28 29 29 29 29 29 28 28 28 28 28 29 30 30 31 33 35 38 39 40 40 40 39 39 38 38 38 36 35 35 35 36 37 38 39 39 39 40 40 40 40 40 39 38 37 36 35 34 35 35 36 38 40 42 43 43 42 42 42 43 43 42 41 38 35 34 34 34 34 35 36 37 37 38 38 38 37 35 33 32 30 29 27 26 26
29 29 29 29 29 29 29 29 29 30 30 32 33 35 36 37 38 39 40 40 39 39 38 36 35 33 33 33 34 34 35 36 36 37 37 38 38 38 38 37 36 35 34 34 35 35 35 35 35 37 37 38 37 39 41 43 42 42 41 40 40 40 41 42 40 37 35 34 34 34 35 35 36 37 38 39 39 38 37 35 33 32 30 29 28 27
29 29 29 29 30 30 31 32 32 33 34 36 38 39 40 39 39 38 37 36 34 32 30 29 28 28 29 30 30 31 32 33 34 34 34 34 34 33 33 32 32 31 30 31 32 34 34 35 36 38 37 36 37 38 40 41 41 41 41 39 38 38 39 40 39 37 35 35 35 35 35 35 36 37 39 39 39 39 38 36 35 33 31 30 28 28
30 30 30 31 31 32 33 34 35 36 37 38 39 39 38 37 35 33 31 30 29 28 28 27 27 28 29 30 30 30 32 33 33 32 32 32 32 32 31 31 31 31 31 32 33 33 34 35 36 37 36 36 36 38 39 39 39 40 41 40 39 39 40 40 38 37 37 36 36 35 35 36 36 38 39 40 40 39 39 38 36 34 32 30 29 28
30 30 31 32 32 32 33 34 35 35 35 36 36 36 35 33 31 30 29 29 29 29 28 27 27 28 30 30 31 32 34 35 35 32 30 30 29 30 30 30 31 32 32 33 33 34 34 34 35 35 35 36 37 38 38 38 38 40 42 41 40 40 40 39 38 37 37 37 36 36 35 36 37 38 39 40 40 40 40 39 37 35 34 32 30 29
30 30 31 31 31 31 32 33 33 33 33 33 34 33 32 31 30 30 29 28 27 27 26 26 26 27 29 30 31 33 35 36 35 33 31 31 31 31 30 30 30 30 31 31 32 32 33 33 34 34 34 35 37 38 38 37 38 39 41 41 40 40 40 40 38 37 36 36 36 36 35 36 37 38 39 40 40 41 41 40 38 36 35 33 31 30
30 30 30 31 31 31 31 31 31 31 31 32 32 32 31 30 30 29 28 26 25 25 25 27 28 29 31 32 33 33 32 33 33 32 31 31 31 31 31 32 31 31 31 31 32 32 33 33 33 33 34 35 37 38 38 37 38 39 40 40 39 40 40 40 39 37 35 35 34 34 34 35 36 37 37 38 39 40 41 40 39 37 35 34 32 31
30 30 31 31 31 32 32 31 31 31 31 31 31 31 30 29 28 28 28 28 28 29 31 31 31 32 32 31 30 29 30 31 31 30 29 29 29 30 31 32 32 32 32 32 32 33 33 34 34 34 34 34 35 37 37 37 37 38 38 38 39 39 40 39 38 36 35 34 33 33 33 33 34 34 34 35 37 39 41 41 40 38 36 34 33 31
29 30 30 30 30 31 31 31 31 31 31 31 30 30 29 29 29 30 30 31 31 32 32 31 30 30 29 28 28 28 28 30 30 30 31 31 32 33 33 32 32 31 31 31 31 32 32 33 34 34 34 33 33 34 35 35 35 35 36 37 37 37 37 37 37 36 34 33 32 32 32 33 33 33 33 34 36 37 39 40 40 39 37 35 33 31
29 29 30 30 31 31 31 31 31 31 31 31 30 30 30 30 30 31 31 31 32 32 31 30 29 29 29 28 28 28 29 31 33 34 35 35 34 32 31 30 29 29 30 30 30 30 30 30 30 31 31 32 31 30 30 31 32 32 33 35 35 35 35 36 35 34 33 32 32 32 32 33 33 33 33 33 34 35 36 38 39 39 37 35 33 32
Wind_Direction
335 335 336 336 336 336 337 338 339 338 337 337 337 338 338 339 340 342 343 344 345 346 347 348 349 350 350 350 350 349 349 350 351 351 351 352 353 353 353 351 348 344 340 338 335 330 323 315 306 296 283 274 271 270 264 259 254 251 248 246 245 244 243 238 231 226 226 227 227 225 223 222 221 220 219 218 217 217 218 222 227 232 237 240 243 243
333 333 333 334 334 334 334 335 337 337 337 336 336 336 336 336 337 338 339 341 342 343 344 344 345 346 348 348 348 347 347 347 348 349 349 350 351 351 352 351 349 346 342 339 337 333 327 319 312 303 292 281 274 270 266 261 257 255 252 249 246 245 245 244 239 232 228 228 228 227 225 224 222 221 220 219 219 219 221 224 228 232 236 240 242 242
331 331 331 332 332 333 333 334 335 335 336 335 335 334 334 334 334 335 336 337 339 340 340 341 342 343 344 345 346 346 345 345 346 346 347 348 349 349 350 350 349 347 344 340 337 334 330 325 317 309 300 289 279 271 265 259 256 256 255 252 248 245 244 244 242 238 233 230 229 229 227 225 223 222 221 221 222 224 226 228 231 234 236 239 241 241
330 331 331 330 331 331 332 333 334 334 334 333 333 332 332 332 332 332 333 334 334 335 337 338 339 340 341 342 343 344 344 344 344 344 345 345 346 347 347 348 348 348 346 343 338 333 331 328 322 312 302 293 282 272 264 260 257 255 255 255 252 249 246 245 243 239 235 232 231 230 229 226 224 223 224 225 226 228 231 233 234 236 237 238 239 240
328 329 330 330 330 330 331 332 333 333 332 332 331 331 331 330 330 330 330 330 331 332 333 334 335 336 338 339 340 340 341 342 342 343 343 343 344 345 345 346 347 347 346 345 341 335 329 327 325 318 306 295 284 273 264 261 261 260 256 254 255 256 255 251 245 240 234 231 230 230 230 228 226 226 227 228 230 233 234 236 236 237 237 238 238 238
325 327 328 329 329 330 330 331 333 333 332 331 330 329 329 328 328 328 328 328 329 329 329 330 332 333 335 336 336 337 337 339 340 341 342 342 342 342 343 343 344 345 345 345 342 338 332 326 324 322 316 304 290 277 266 261 261 263 263 258 255 255 256 256 252 245 237 231 228 228 228 229 229 229 229 231 233 235 237 237 238 238 238 237 237 235
323 324 326 327 327 327 328 330 331 333 333 331 329 328 327 326 326 326 326 326 326 326 326 327 328 330 331 333 334 334 334 335 337 339 340 341 341 340 340 340 341 342 342 342 342 340 336 329 323 319 318 313 303 289 274 265 260 260 262 263 259 254 251 252 252 250 246 239 232 228 227 228 230 231 232 233 235 237 238 238 238 238 237 236 235 233
321 322 324 325 325 326 326 327 329 331 332 331 330 328 327 325 324 323 323 323 324 325 325 325 325 327 329 331 331 331 331 332 333 335 337 339 340 340 339 338 337 338 338 339 339 339 337 333 327 320 314 312 309 303 291 279 267 259 257 259 261 258 252 248 247 248 249 246 241 235 230 229 230 233 235 236 237 238 239 239 239 238 237 235 233 231
320 321 322 323 324 325 325 325 327 329 330 331 330 329 328 325 323 322 321 321 323 324 325 325 325 325 326 328 329 329 329 329 330 332 334 336 338 339 339 338 336 334 334 334 335 336 336 335 331 325 316 309 307 307 304 297 285 271 261 257 258 259 257 252 248 245 246 246 245 242 237 232 232 234 236 238 239 240 240 240 239 238 236 234 232 230
318 319 320 321 322 323 324 324 325 326 327 328 327 327 327 326 325 323 322 322 322 323 324 324 324 324 325 326 327 327 327 327 327 329 331 332 334 336 337 336 335 332 330 330 331 332 333 334 333 330 323 313 305 302 302 301 296 288 277 264 259 257 258 257 254 248 245 243 244 244 242 238 236 236 238 240 241 241 241 241 239 237 235 232 230 228
317 318 318 319 320 321 321 322 323 324 324 324 323 323 324 325 326 325 324 323 322 322 323 323 323 323 324 324 325 325 325 324 325 326 328 329 330 331 332 333 333 331 329 327 327 328 329 330 331 331 328 320 309 300 295 295 295 294 291 284 273 265 262 261 257 253 248 245 243 243 243 242 240 239 238 240 241 241 241 240 238 235 231 229 228 228
316 316 317 317 318 319 320 320 321 322 323 323 324 324 324 325 325 325 324 322 321 321 321 321 321 321 322 323 323 323 323 323 323 325 325 326 327 328 328 329 330 330 328 326 325 325 325 325 327 329 329 326 318 306 295 289 288 289 291 292 291 285 276 268 260 254 250 247 245 244 244 244 243 242 240 240 240 241 241 240 237 233 229 227 227 229
314 315 316 316 317 318 320 321 322 323 324 325 326 326 325 323 322 322 321 319 319 319 319 319 318 318 320 321 321 321 321 321 322 322 323 324 325 325 326 326 327 328 328 326 325 323 322 322 322 324 326 327 324 315 303 292 286 284 286 290 296 298 293 278 265 257 252 249 246 245 244 245 245 245 244 242 240 239 239 238 236 234 230 228 228 230
313 314 314 315 316 317 319 321 322 323 323 324 324 323 321 320 319 318 318 317 316 317 317 316 316 316 317 318 319 319 319 320 320 320 321 321 323 324 324 324 325 326 326 326 325 324 322 320 319 320 322 324 325 322 314 302 292 286 284 288 295 304 309 300 281 266 257 252 248 246 244 244 245 246 246 244 242 240 238 236 234 231 229 228 228 230
312 313 313 314 315 316 318 320 320 320 320 320 320 318 317 316 316 316 317 316 316 316 315 315 314 314 315 317 318 318 318 319 319 319 319 319 320 322 322 322 322 322 323 323 323 323 322 320 318 318 318 320 323 324 322 315 304 294 287 285 288 296 305 307 302 290 274 261 252 248 245 244 244 244 245 246 245 243 240 236 233 230 227 226 225 226
311 311 312 312 313 314 316 317 317 317 317 317 317 316 316 315 315 315 315 315 315 315 315 316 315 314 314 315 317 317 318 318 318 317 317 316 317 319 320 320 320 320 320 320 321 321 320 319 317 316 316 318 320 322 323 322 316 306 295 287 283 285 290 297 304 308 304 284 264 254 248 246 244 244 244 245 245 245 243 240 236 232 229 225 224 223
309 310 310 311 312 313 314 315 315 315 315 316 315 314 314 314 313 313 313 313 313 314 315 315 316 315 314 314 315 317 317 317 316 316 314 313 314 316 318 318 318 317 317 317 318 318 319 318 317 315 314 315 316 319 321 322 321 316 308 296 286 281 280 284 291 299 306 306 295 276 261 253 248 245 244 243 244 245 245 244 241 237 232 229 226 225
308 309 310 311 311 312 313 314 314 315 315 316 315 314 312 311 311 311 311 311 312 313 313 313 312 312 311 311 312 314 316 316 315 314 312 311 311 313 315 316 315 315 314 315 315 316 316 316 315 314 312 311 312 314 316 319 320 319 316 308 296 285 278 278 281 287 294 301 306 305 294 275 260 251 246 244 243 243 244 245 244 241 236 233 230 230
308 309 310 311 312 313 313 314 315 316 317 317 316 314 313 311 310 310 309 309 309 310 310 310 309 308 307 307 308 311 314 314 314 313 311 309 308 310 313 314 313 312 312 312 313 314 314 313 312 311 310 308 308 308 311 313 316 317 317 315 307 295 284 278 277 280 284 290 297 303 307 304 290 270 256 248 244 243 243 244 244 243 240 236 233 232
309 310 311 313 314 314 314 314 315 317 317 316 315 314 313 312 311 310 309 309 308 307 306 306 305 304 304 304 305 308 311 312 312 312 310 308 307 308 311 312 312 311 309 310 311 312 312 311 310 309 308 307 306 305 306 308 310 313 314 315 312 306 295 284 278 277 280 283 288 293 299 304 306 299 282 263 251 245 243 243 244 244 243 241 237 233
310 311 312 314 315 314 314 314 315 316 316 315 314 313 312 312 312 311 311 310 309 307 305 303 302 302 302 303 304 305 308 310 311 311 310 307 306 306 309 311 311 309 308 307 309 310 310 310 308 307 307 307 306 305 303 303 305 307 309 311 312 311 305 294 283 277 277 280 283 287 290 295 300 304 303 290 270 255 247 244 243 243 244 243 241 238
310 311 313 315 314 313 313 313 314 314 314 314 313 312 312 312 312 312 312 311 310 308 305 303 301 300 300 300 301 302 304 307 309 311 310 309 306 305 308 309 309 308 306 306 307 308 308 307 306 306 306 306 306 306 304 302 302 303 305 307 309 311 311 305 293 282 277 277 280 283 286 289 292 296 302 304 296 278 261 250 244 242 243 244 244 242
309 310 312 313 312 312 312 312 313 313 313 312 311 310 310 311 310 310 310 310 308 307 305 302 300 299 298 298 298 299 301 304 306 309 310 307 305 304 305 307 308 307 306 305 306 307 306 305 305 304 304 305 306 306 304 302 301 301 302 304 306 309 311 311 305 294 283 278 278 280 283 286 288 290 293 299 304 301 288 269 255 247 243 243 243 243
307 308 309 310 310 310 310 310 310 310 310 309 309 308 308 309 308 308 308 307 306 305 304 303 301 300 299 299 298 298 299 302 305 307 307 304 302 301 302 305 307 307 306 305 306 306 305 303 303 303 304 304 305 305 305 303 302 301 301 302 304 307 309 311 310 306 297 287 281 280 282 284 286 287 287 291 296 303 304 295 278 261 250 244 243 243
304 304 305 306 307 307 307 307 307 307 307 306 306 306 306 307 306 305 305 304 304 304 303 301 300 300 301 302 301 300 299 300 302 304 304 302 300 300 301 304 307 308 306 305 304 305 304 303 302 302 304 305 306 307 306 305 303 301 301 301 304 306 308 309 310 310 306 299 290 284 282 283 284 285 285 285 288 294 301 304 300 286 267 252 245 243
301 300 301 301 302 301 301 301 301 301 300 300 301 302 303 303 303 302 301 300 300 300 298 297 296 297 300 302 303 303 302 301 301 302 303 302 301 301 301 304 307 308 306 304 304 305 305 304 303 303 304 306 307 308 308 307 305 303 301 302 303 305 306 307 308 308 307 305 299 292 286 284 284 284 283 283 285 287 293 299 304 301 288 269 253 245
297 296 296 296 295 294 294 293 293 292 292 293 294 296 297 298 298 297 296 296 297 297 295 294 294 295 297 299 301 303 305 304 302 302 303 304 303 302 302 304 306 306 305 304 303 304 305 304 304 304 304 306 307 308 309 308 307 305 303 303 303 303 304 303 303 303 303 303 301 298 292 287 284 283 283 283 283 284 287 292 298 302 301 288 268 252
295 295 294 293 292 290 288 287 286 286 287 288 289 291 292 292 292 291 291 294 296 296 293 291 291 292 293 294 298 302 305 305 304 304 305 305 302 300 301 302 304 304 305 304 302 301 302 302 303 304 304 305 306 307 307 307 307 306 304 303 301 301 300 300 299 298 298 298 298 297 295 291 287 284 282 282 282 283 285 287 291 296 300 298 286 268
295 295 294 293 292 290 288 286 284 283 284 285 286 287 288 287 287 287 289 293 294 293 291 289 289 289 290 293 296 299 302 303 305 306 306 303 299 297 299 300 302 303 305 306 304 301 300 300 302 304 304 304 304 304 304 305 306 305 304 302 300 298 297 296 296 295 294 293 293 293 293 292 289 286 283 281 281 282 284 285 288 291 295 298 296 285
295 295 294 293 292 291 289 287 286 285 284 285 285 285 285 284 284 285 288 290 289 288 287 287 287 288 289 292 294 296 297 300 304 306 305 300 297 297 299 301 302 304 308 309 309 307 303 301 301 302 303 303 302 303 304 305 306 306 306 304 301 298 296 294 294 293 292 291 290 289 290 290 289 287 284 282 281 281 283 285 286 288 290 293 295 292
296 295 294 293 293 292 291 290 289 288 288 287 287 285 284 282 282 282 283 284 283 283 283 284 285 286 287 287 288 289 290 296 301 304 304 299 297 299 302 304 305 306 308 311 312 310 306 304 301 300 302 302 303 304 305 307 308 309 309 308 305 302 298 296 295 293 292 291 290 289 288 288 288 287 286 283 281 280 281 284 285 286 287 288 290 291
297 296 295 295 294 294 293 292 292 291 291 290 289 287 285 283 281 280 279 278 278 279 279 281 281 282 283 283 282 283 287 294 300 303 302 299 299 301 303 305 305 306 307 308 307 304 303 303 302 302 303 304 305 305 306 307 308 310 311 311 310 306 303 300 298 296 294 293 292 290 289 288 287 286 285 284 282 281 281 282 284 285 285 285 286 287
297 296 295 295 295 294 293 293 292 292 291 290 288 287 286 284 282 280 278 277 276 276 276 277 279 280 281 281 282 283 287 293 298 302 301 299 298 299 302 303 304 305 306 306 304 302 300 300 302 304 304 305 306 306 306 307 307 309 311 312 312 310 307 304 301 298 296 295 294 292 291 289 287 286 285 283 282 280 280 281 282 283 283 283 283 284
296 295 295 294 294 294 293 293 292 291 290 288 287 286 286 285 284 282 280 278 276 275 274 275 276 278 279 280 281 283 286 291 297 300 300 297 296 297 299 301 302 303 304 304 304 303 302 301 302 304 305 305 305 305 305 306 307 308 310 312 312 312 310 307 304 301 298 297 295 294 292 291 289 287 285 283 281 279 278 278 280 281 282 281 281 281
293 292 292 293 293 293 294 293 293 292 290 288 287 286 285 284 283 283 282 280 279 277 275 275 276 277 278 279 280 282 285 290 295 298 298 295 294 295 296 297 298 300 301 302 302 302 302 302 302 303 304 305 304 303 303 304 306 308 309 311 312 311 310 308 305 302 300 298 296 295 293 292 290 289 286 284 282 279 276 275 276 277 278 279 279 278
289 290 290 291 292 292 293 293 292 291 290 288 286 284 283 282 282 281 280 279 278 277 276 275 275 276 278 279 280 282 285 288 291 293 294 293 293 292 292 293 294 296 297 298 299 299 300 300 300 301 302 302 302 302 303 304 305 306 308 309 310 310 309 308 306 303 300 298 296 295 293 292 291 289 288 286 284 281 278 274 272 273 274 275 275 275
288 288 288 288 288 288 288 288 287 286 284 282 281 280 279 278 277 276 275 274 274 273 272 271 271 273 275 277 280 282 284 285 287 288 289 290 290 289 288 288 290 291 292 293 295 296 296 296 297 299 299 298 298 300 302 303 304 305 306 307 309 309 308 307 305 302 299 297 295 294 293 292 291 290 289 287 286 284 281 276 272 270 269 270 270 270
284 284 284 284 284 283 283 282 281 280 279 279 279 279 277 275 274 272 271 270 269 269 269 269 268 269 270 273 276 279 281 283 284 284 285 286 286 285 286 286 287 289 290 291 291 291 291 292 293 294 295 295 296 297 299 301 302 303 305 306 308 308 307 306 305 302 299 297 295 294 293 292 291 291 290 289 287 285 283 279 275 271 268 266 265 266
281 281 282 283 283 283 282 282 283 285 288 288 287 284 282 279 278 276 275 273 272 271 270 270 269 269 270 271 273 276 278 280 281 281 282 282 283 283 284 285 287 288 289 289 288 288 288 288 289 290 291 292 293 294 296 298 300 301 303 305 306 306 305 306 305 304 301 298 296 294 292 291 291 290 290 289 288 287 285 282 279 275 271 267 264 262
281 282 283 285 286 287 287 289 292 296 298 295 291 285 282 280 280 281 281 281 280 279 278 276 275 274 272 272 273 274 276 277 278 278 278 279 280 282 283 284 285 286 286 286 285 285 286 288 289 289 289 288 289 291 294 296 298 300 302 303 303 304 305 306 305 303 300 297 295 293 291 290 290 289 289 289 288 288 286 284 281 277 274 270 266 262
280 281 284 287 289 291 292 295 297 298 296 290 284 280 278 277 278 280 282 283 284 284 283 282 281 279 277 275 273 272 272 273 273 273 273 274 275 276 277 278 279 281 283 284 286 287 288 289 289 288 286 286 287 289 291 294 296 298 300 300 301 302 304 304 303 301 299 297 295 293 291 290 289 289 288 288 287 287 285 284 282 279 276 273 270 266
282 284 287 290 291 292 293 293 292 289 286 282 279 277 277 277 279 281 283 284 285 285 285 284 284 283 281 279 276 273 271 269 268 268 269 269 270 271 274 277 280 283 285 287 288 289 289 289 288 286 285 286 287 289 290 293 295 296 297 298 299 301 303 302 302 301 301 299 296 294 292 290 289 288 287 287 286 285 284 283 282 280 278 276 273 269
287 288 289 289 289 289 288 286 284 282 279 278 277 277 278 280 282 283 285 285 286 286 286 286 285 285 285 284 282 280 277 275 273 272 272 273 274 276 278 282 285 286 287 286 286 287 288 288 287 286 286 287 288 288 290 292 295 296 296 296 299 301 301 300 301 302 302 299 296 293 291 289 288 287 286 285 285 284 283 282 281 279 278 277 275 272
285 285 285 284 283 281 280 279 278 278 278 278 278 280 282 284 285 287 288 288 289 290 291 292 293 292 290 288 287 287 286 284 282 280 279 278 279 279 280 282 283 283 283 282 283 284 285 284 284 284 285 286 287 288 290 292 294 296 296 296 297 297 295 297 300 303 301 298 295 293 291 289 288 287 286 284 283 282 282 281 280 279 278 276 274 273
281 280 279 279 279 278 278 278 278 279 279 281 282 284 286 288 290 292 295 296 297 298 299 301 302 300 295 292 291 291 291 289 287 285 284 282 280 279 277 276 276 277 277 278 278 279 281 281 282 283 286 288 289 289 290 291 293 295 296 296 296 296 295 298 300 301 300 298 296 294 292 291 290 289 287 285 283 282 281 280 280 278 277 275 274 272
276 277 278 278 279 279 280 280 281 282 283 285 286 288 291 293 296 298 300 300 300 300 301 301 299 296 292 291 291 291 291 291 292 292 292 290 288 286 283 281 279 278 279 279 280 281 281 282 283 286 288 290 290 290 289 290 291 292 294 295 295 296 297 298 299 299 299 299 297 295 293 293 292 290 288 286 285 283 281 280 279 278 276 275 273 271
275 276 277 279 280 280 281 283 284 285 285 286 288 290 293 295 297 298 299 298 296 295 294 293 291 288 287 287 286 287 288 291 295 299 301 302 300 297 295 293 291 290 288 287 287 287 287 287 287 287 287 287 286 286 286 287 288 289 291 293 295 296 297 297 298 299 300 299 297 296 294 293 291 289 287 287 286 285 282 280 278 277 276 275 273 272
274 276 277 278 279 280 281 282 283 283 284 285 287 289 291 293 294 294 292 291 288 286 285 284 284 284 283 283 283 285 288 291 295 298 300 300 300 298 297 295 294 294 293 291 290 289 288 287 287 286 284 283 282 282 283 285 286 288 290 292 294 295 296 297 299 301 302 300 298 296 295 293 290 288 287 287 286 285 283 281 279 277 276 275 274 273
274 275 276 277 278 279 280 281 282 282 282 284 286 287 287 287 286 284 282 280 279 279 280 282 283 283 283 284 285 286 288 289 290 290 290 290 290 290 290 290 289 289 289 288 288 288 287 287 287 285 284 282 280 280 282 284 286 287 289 291 292 294 295 297 300 302 303 301 299 298 296 294 291 288 286 285 283 283 283 282 280 278 276 274 274 273
276 276 277 277 277 278 279 280 280 280 281 282 283 283 283 281 278 276 276 277 279 281 282 283 283 284 283 283 283 283 281 279 279 280 281 283 284 286 286 286 287 287 287 288 288 288 289 288 287 286 285 283 281 281 281 282 284 286 287 289 290 293 295 298 301 303 304 304 303 301 299 296 294 292 288 283 280 280 282 283 281 279 276 275 274 274
279 279 279 279 279 279 279 279 279 279 279 280 281 281 280 280 279 280 280 282 284 285 285 285 284 284 283 283 282 280 278 277 277 279 282 286 288 289 289 289 289 289 289 288 288 288 287 286 285 284 283 283 282 281 280 280 281 283 285 287 289 293 296 298 301 304 306 307 306 305 303 300 297 294 290 285 281 279 280 281 281 280 278 277 276 275
Height
1526 1525 1524 1523 1522 1521 1520 1520 1518 1516 1515 1514 1513 1512 1511 1510 1509 1508 1508 1507 1506 1504 1503 1502 1501 1501 1500 1499 1498 1497 1496 1495 1494 1493 1491 1491 1489 1488 1487 1486 1485 1484 1483 1482 1481 1480 1479 1478 1477 1476 1476 1476 1476 1476 1476 1477 1478 1479 1480 1481 1481 1481 1481 1482 1484 1486 1488 1489 1490 1491 1491 1491 1491 1491 1491 1492 1494 1495 1497 1500 1502 1504 1506 1508 1511 1512
1525 1524 1524 1523 1521 1520 1519 1519 1518 1516 1515 1513 1512 1511 1510 1509 1508 1507 1506 1506 1505 1504 1503 1501 1501 1500 1499 1498 1497 1496 1495 1494 1493 1492 1491 1490 1489 1488 1486 1486 1484 1483 1483 1482 1481 1480 1479 1478 1477 1476 1475 1475 1475 1475 1475 1475 1476 1477 1478 1479 1480 1481 1481 1481 1482 1484 1486 1487 1488 1489 1490 1490 1490 1489 1490 1491 1492 1493 1495 1497 1499 1501 1503 1505 1507 1510
1524 1523 1522 1521 1521 1520 1518 1518 1517 1516 1515 1513 1512 1511 1509 1508 1507 1506 1505 1504 1503 1503 1502 1501 1500 1499 1498 1497 1496 1496 1495 1493 1492 1491 1491 1489 1488 1487 1486 1485 1484 1483 1482 1481 1480 1480 1479 1477 1476 1476 1475 1475 1474 1474 1474 1473 1473 1474 1476 1477 1479 1479 1480 1481 1481 1482 1484 1485 1486 1486 1487 1488 1489 1489 1489 1490 1491 1492 1493 1495 1496 1498 1500 1502 1505 1506
1524 1522 1521 1520 1520 1519 1518 1517 1516 1515 1514 1513 1512 1511 1509 1508 1506 1505 1504 1503 1502 1501 1501 1500 1499 1498 1497 1496 1495 1494 1494 1493 1492 1491 1490 1489 1488 1487 1486 1485 1483 1482 1481 1480 1480 1479 1478 1477 1476 1476 1475 1475 1474 1473 1472 1472 1472 1472 1473 1475 1476 1478 1479 1479 1480 1481 1482 1483 1484 1485 1486 1487 1488 1488 1488 1489 1490 1491 1492 1493 1494 1496 1498 1500 1501 1504
1524 1522 1521 1520 1519 1518 1517 1516 1516 1514 1513 1512 1511 1510 1509 1507 1506 1505 1504 1503 1502 1501 1500 1499 1498 1497 1496 1495 1494 1493 1492 1491 1491 1490 1489 1488 1487 1486 1485 1484 1483 1482 1481 1479 1478 1478 1477 1477 1476 1476 1475 1475 1473 1472 1472 1472 1472 1472 1472 1472 1474 1475 1477 1478 1478 1479 1480 1481 1482 1483 1485 1485 1486 1486 1487 1487 1488 1489 1490 1491 1492 1494 1496 1497 1499 1501
1523 1522 1521 1520 1518 1517 1516 1516 1515 1513 1512 1511 1510 1509 1508 1507 1506 1504 1503 1502 1501 1500 1498 1498 1497 1496 1495 1494 1493 1492 1491 1490 1490 1489 1488 1487 1486 1486 1485 1484 1482 1481 1480 1479 1478 1477 1477 1476 1476 1475 1475 1475 1474 1472 1472 1471 1471 1471 1471 1471 1471 1472 1474 1476 1477 1477 1478 1478 1480 1481 1482 1483 1483 1484 1485 1486 1487 1488 1489 1490 1491 1492 1493 1495 1496 1498
1522 1522 1521 1520 1518 1517 1516 1515 1514 1513 1511 1510 1508 1507 1507 1506 1505 1504 1502 1501 1500 1499 1497 1496 1496 1495 1494 1493 1492 1491 1490 1489 1488 1488 1487 1486 1486 1485 1484 1483 1482 1481 1480 1479 1477 1476 1476 1476 1475 1475 1475 1474 1473 1473 1472 1471 1471 1471 1471 1470 1470 1470 1471 1473 1475 1476 1477 1477 1477 1479 1480 1481 1481 1481 1483 1484 1485 1486 1487 1488 1489 1490 1491 1492 1494 1495
1521 1521 1520 1519 1518 1516 1516 1515 1514 1513 1511 1510 1508 1506 1504 1504 1503 1502 1502 1501 1500 1498 1496 1495 1494 1493 1493 1492 1491 1489 1488 1487 1486 1486 1486 1485 1485 1484 1483 1482 1481 1481 1480 1479 1477 1476 1476 1475 1474 1474 1473 1473 1473 1472 1471 1471 1470 1470 1470 1470 1470 1470 1470 1470 1471 1473 1475 1476 1476 1477 1477 1479 1479 1480 1481 1482 1483 1484 1485 1486 1487 1488 1489 1490 1491 1492
1521 1520 1519 1519 1517 1516 1515 1513 1513 1512 1511 1510 1508 1506 1504 1502 1500 1500 1499 1499 1498 1497 1496 1494 1492 1491 1491 1490 1489 1488 1487 1486 1485 1484 1484 1483 1483 1482 1482 1481 1481 1480 1479 1478 1477 1476 1475 1474 1474 1473 1472 1472 1472 1471 1471 1470 1469 1469 1469 1469 1469 1469 1469 1469 1469 1469 1471 1474 1475 1476 1476 1477 1478 1478 1479 1480 1481 1482 1483 1484 1485 1486 1487 1488 1489 1490
1520 1519 1518 1518 1517 1516 1515 1513 1512 1511 1511 1510 1509 1507 1505 1503 1500 1497 1496 1496 1496 1496 1495 1493 1491 1490 1488 1488 1488 1487 1485 1484 1484 1483 1482 1482 1481 1481 1481 1480 1480 1479 1478 1478 1477 1476 1475 1474 1473 1472 1471 1471 1471 1470 1470 1469 1469 1468 1468 1468 1468 1468 1468 1468 1467 1467 1467 1469 1471 1473 1475 1475 1476 1476 1476 1477 1478 1479 1481 1482 1483 1484 1485 1486 1487 1488
1519 1518 1517 1516 1516 1515 1515 1513 1512 1511 1510 1509 1508 1507 1506 1504 1501 1498 1496 1493 1493 1493 1492 1492 1491 1490 1488 1486 1485 1485 1484 1483 1482 1481 1481 1481 1480 1480 1479 1479 1479 1478 1477 1477 1476 1475 1474 1473 1472 1471 1471 1470 1470 1469 1469 1468 1468 1468 1467 1467 1467 1467 1466 1466 1466 1466 1466 1466 1467 1469 1471 1473 1474 1475 1475 1476 1476 1477 1478 1480 1481 1482 1483 1484 1485 1486
1517 1517 1516 1515 1514 1514 1513 1512 1511 1510 1509 1508 1506 1504 1503 1502 1501 1500 1497 1495 1492 1491 1490 1490 1490 1490 1489 1486 1485 1483 1482 1481 1480 1479 1479 1478 1478 1477 1477 1477 1477 1477 1476 1476 1475 1474 1473 1472 1471 1471 1470 1469 1469 1468 1468 1467 1467 1467 1467 1466 1466 1466 1466 1465 1465 1465 1465 1465 1465 1465 1467 1470 1471 1472 1473 1474 1474 1475 1476 1477 1478 1479 1481 1482 1482 1483
1516 1516 1515 1514 1513 1512 1512 1511 1510 1509 1508 1507 1506 1504 1502 1501 1501 1500 1498 1496 1494 1492 1490 1488 1488 1488 1488 1487 1485 1483 1481 1480 1479 1478 1477 1476 1476 1475 1474 1474 1474 1474 1474 1474 1474 1473 1472 1471 1470 1470 1469 1468 1467 1467 1467 1466 1466 1466 1466 1466 1465 1465 1465 1465 1464 1464 1464 1464 1464 1463 1464 1466 1468 1470 1471 1472 1473 1473 1474 1475 1476 1477 1478 1479 1480 1481
1515 1514 1513 1512 1512 1511 1511 1510 1509 1508 1507 1506 1506 1505 1503 1501 1500 1499 1497 1496 1494 1492 1491 1489 1487 1486 1486 1486 1485 1483 1481 1479 1478 1476 1476 1475 1474 1473 1472 1472 1472 1472 1472 1472 1472 1471 1471 1470 1469 1468 1467 1467 1466 1466 1466 1465 1465 1465 1465 1464 1464 1464 1463 1463 1463 1463 1463 1462 1462 1462 1462 1463 1464 1466 1468 1470 1471 1471 1472 1473 1473 1474 1475 1476 1477 1478
1514 1513 1512 1511 1510 1510 1510 1509 1508 1507 1507 1506 1506 1504 1503 1501 1500 1498 1497 1494 1492 1491 1490 1488 1486 1485 1485 1485 1484 1483 1481 1479 1477 1475 1473 1473 1473 1473 1471 1470 1470 1470 1470 1470 1470 1470 1470 1469 1468 1467 1466 1466 1465 1465 1464 1464 1464 1464 1464 1463 1462 1462 1462 1462 1462 1462 1461 1461 1461 1461 1461 1461 1461 1462 1464 1466 1468 1469 1470 1471 1471 1472 1473 1473 1474 1475
1512 1512 1511 1510 1509 1509 1509 1508 1508 1507 1506 1505 1505 1504 1502 1501 1499 1498 1496 1495 1492 1490 1489 1486 1484 1481 1481 1482 1483 1482 1480 1478 1476 1474 1472 1471 1471 1471 1471 1469 1468 1467 1467 1468 1468 1468 1468 1468 1467 1466 1466 1465 1464 1464 1463 1462 1462 1462 1462 1462 1461 1461 1461 1461 1461 1460 1460 1459 1459 1458 1459 1459 1459 1460 1460 1462 1464 1466 1467 1468 1469 1470 1471 1471 1472 1473
1511 1511 1510 1509 1508 1507 1507 1507 1507 1506 1505 1504 1504 1503 1502 1501 1499 1498 1496 1495 1493 1491 1489 1487 1485 1481 1478 1477 1479 1481 1480 1477 1475 1473 1471 1469 1469 1470 1470 1468 1466 1465 1465 1465 1465 1466 1466 1466 1466 1465 1465 1464 1463 1463 1462 1461 1461 1461 1460 1460 1460 1460 1459 1459 1459 1458 1458 1457 1457 1456 1456 1457 1457 1457 1458 1458 1460 1462 1464 1465 1466 1467 1468 1469 1470 1471
1510 1510 1509 1508 1507 1506 1506 1506 1505 1505 1504 1503 1502 1501 1501 1500 1499 1498 1497 1495 1494 1492 1490 1488 1486 1484 1481 1477 1476 1478 1479 1477 1474 1471 1469 1467 1467 1468 1469 1468 1466 1464 1463 1463 1463 1463 1463 1464 1464 1464 1464 1463 1462 1462 1461 1461 1460 1459 1458 1458 1457 1457 1457 1457 1456 1456 1456 1456 1455 1455 1455 1455 1455 1455 1456 1456 1456 1458 1460 1461 1463 1464 1465 1467 1468 1469
1508 1508 1508 1507 1506 1505 1505 1504 1504 1503 1503 1502 1501 1500 1499 1498 1498 1497 1496 1495 1494 1492 1491 1488 1486 1485 1483 1479 1477 1477 1478 1477 1474 1471 1468 1465 1464 1465 1467 1466 1465 1463 1462 1461 1461 1461 1461 1461 1461 1462 1462 1462 1461 1461 1460 1459 1459 1458 1456 1456 1455 1455 1454 1454 1454 1454 1454 1454 1453 1453 1453 1453 1453 1453 1453 1454 1454 1455 1456 1457 1459 1461 1462 1463 1465 1466
1507 1506 1506 1506 1505 1504 1503 1503 1503 1502 1501 1501 1500 1498 1497 1496 1496 1496 1495 1494 1493 1492 1491 1489 1486 1484 1483 1480 1478 1478 1478 1477 1474 1471 1467 1464 1463 1463 1465 1465 1463 1461 1460 1459 1459 1459 1458 1458 1458 1459 1460 1460 1460 1460 1459 1458 1457 1456 1455 1454 1453 1452 1452 1451 1451 1451 1451 1451 1451 1451 1451 1451 1451 1451 1451 1451 1451 1452 1453 1454 1455 1457 1459 1460 1461 1462
1505 1505 1505 1505 1504 1502 1501 1501 1501 1501 1501 1500 1498 1497 1496 1495 1494 1493 1493 1492 1491 1490 1489 1488 1486 1484 1483 1481 1479 1478 1478 1477 1474 1471 1467 1463 1461 1461 1463 1463 1461 1460 1458 1457 1457 1457 1456 1456 1455 1456 1457 1458 1458 1458 1457 1456 1456 1455 1454 1453 1451 1451 1450 1449 1449 1448 1448 1448 1448 1449 1449 1450 1450 1449 1449 1448 1448 1449 1450 1451 1452 1453 1455 1456 1457 1459
1503 1503 1503 1503 1502 1501 1500 1500 1500 1500 1499 1498 1497 1496 1495 1494 1493 1491 1491 1491 1490 1488 1487 1486 1485 1483 1482 1481 1479 1478 1479 1477 1475 1472 1468 1463 1460 1459 1461 1461 1460 1458 1456 1455 1455 1455 1454 1453 1453 1453 1454 1455 1456 1456 1456 1455 1454 1453 1452 1451 1451 1450 1449 1448 1447 1447 1446 1445 1445 1446 1446 1447 1447 1447 1447 1446 1446 1446 1447 1447 1448 1449 1451 1452 1453 1455
1502 1501 1501 1501 1501 1500 1499 1498 1498 1498 1498 1497 1496 1495 1494 1493 1492 1491 1490 1489 1488 1486 1485 1484 1482 1481 1481 1480 1479 1478 1478 1477 1476 1473 1470 1465 1460 1457 1459 1460 1459 1457 1455 1454 1453 1452 1451 1451 1451 1451 1451 1452 1453 1453 1454 1453 1452 1452 1451 1450 1449 1449 1448 1447 1446 1446 1445 1444 1443 1443 1444 1444 1445 1445 1445 1445 1444 1444 1444 1444 1445 1446 1447 1448 1449 1451
1501 1500 1499 1499 1499 1498 1497 1497 1496 1496 1496 1495 1495 1494 1493 1492 1491 1490 1488 1487 1486 1485 1483 1481 1480 1479 1478 1478 1478 1477 1477 1477 1476 1473 1471 1466 1461 1458 1458 1459 1458 1455 1452 1452 1451 1451 1449 1448 1448 1448 1448 1449 1450 1451 1451 1451 1451 1450 1449 1449 1448 1447 1447 1446 1445 1444 1444 1443 1442 1441 1441 1441 1441 1442 1442 1442 1442 1442 1441 1441 1442 1443 1443 1444 1445 1446
1500 1499 1498 1497 1497 1497 1496 1496 1495 1495 1494 1494 1493 1492 1491 1490 1489 1488 1487 1486 1485 1483 1481 1480 1478 1476 1475 1476 1475 1475 1475 1476 1475 1473 1470 1466 1462 1458 1458 1458 1457 1455 1451 1450 1449 1449 1448 1446 1446 1446 1446 1446 1446 1447 1448 1449 1449 1448 1448 1447 1446 1446 1446 1445 1444 1444 1443 1442 1441 1441 1440 1439 1439 1439 1439 1440 1440 1440 1440 1439 1440 1440 1441 1441 1441 1442
1499 1498 1497 1496 1496 1496 1495 1494 1494 1493 1493 1492 1492 1491 1490 1489 1488 1486 1485 1484 1483 1482 1481 1479 1477 1475 1474 1473 1473 1472 1473 1473 1473 1472 1470 1466 1462 1458 1456 1458 1457 1454 1451 1448 1447 1447 1446 1444 1443 1443 1444 1444 1444 1444 1445 1446 1446 1446 1446 1446 1445 1444 1444 1443 1443 1442 1442 1441 1440 1439 1439 1438 1437 1436 1436 1437 1437 1437 1438 1437 1437 1437 1438 1438 1437 1437
1497 1496 1496 1495 1495 1494 1494 1493 1493 1492 1492 1491 1491 1490 1489 1488 1486 1485 1483 1482 1482 1481 1480 1478 1475 1473 1472 1471 1471 1470 1471 1471 1471 1470 1469 1466 1462 1458 1456 1456 1456 1454 1451 1447 1446 1445 1445 1443 1442 1441 1442 1442 1442 1442 1442 1443 1443 1444 1444 1444 1443 1443 1442 1442 1441 1441 1441 1440 1439 1438 1437 1436 1435 1435 1434 1434 1434 1435 1435 1436 1436 1435 1435 1435 1435 1434
1495 1495 1494 1493 1493 1492 1492 1491 1491 1491 1490 1490 1489 1489 1488 1487 1486 1483 1481 1481 1481 1480 1478 1477 1475 1472 1470 1469 1468 1468 1468 1468 1468 1468 1467 1465 1462 1458 1456 1456 1455 1453 1451 1446 1444 1442 1443 1442 1441 1440 1440 1440 1440 1440 1440 1440 1441 1441 1442 1442 1441 1441 1440 1440 1439 1439 1439 1438 1437 1436 1436 1435 1434 1433 1432 1432 1432 1432 1433 1433 1434 1433 1433 1433 1432 1431
1493 1492 1492 1491 1491 1490 1490 1489 1488 1488 1488 1487 1487 1487 1486 1486 1484 1481 1479 1479 1479 1478 1476 1475 1474 1472 1470 1468 1466 1466 1465 1466 1466 1467 1466 1464 1461 1458 1457 1456 1455 1453 1451 1446 1442 1439 1439 1440 1440 1439 1438 1438 1438 1437 1437 1437 1438 1439 1439 1439 1439 1439 1438 1438 1437 1437 1437 1436 1436 1435 1434 1433 1433 1432 1431 1430 1429 1430 1430 1431 1431 1431 1431 1431 1430 1430
1491 1490 1489 1489 1488 1488 1487 1487 1486 1486 1485 1485 1485 1484 1484 1483 1482 1480 1479 1478 1477 1476 1474 1473 1472 1471 1469 1467 1466 1464 1462 1463 1464 1466 1465 1463 1459 1457 1456 1455 1453 1452 1451 1448 1442 1437 1435 1435 1437 1438 1437 1436 1435 1435 1435 1435 1435 1435 1436 1436 1436 1436 1436 1436 1435 1435 1434 1434 1434 1433 1433 1432 1431 1430 1429 1428 1427 1427 1427 1428 1429 1429 1429 1429 1428 1428
1487 1487 1486 1486 1486 1486 1485 1484 1484 1483 1482 1482 1482 1481 1481 1481 1480 1478 1477 1476 1476 1474 1473 1471 1470 1469 1469 1468 1466 1463 1460 1460 1462 1464 1463 1461 1458 1456 1455 1454 1452 1451 1451 1450 1447 1441 1435 1431 1432 1434 1435 1434 1433 1432 1432 1432 1432 1432 1432 1433 1433 1433 1434 1433 1433 1432 1431 1431 1431 1431 1431 1430 1429 1428 1427 1426 1426 1425 1425 1425 1426 1427 1427 1427 1427 1426
1485 1484 1483 1483 1483 1482 1482 1481 1481 1480 1480 1479 1479 1479 1478 1478 1477 1476 1476 1475 1474 1473 1471 1470 1468 1467 1467 1466 1465 1462 1459 1458 1460 1461 1461 1460 1456 1454 1454 1453 1451 1449 1449 1449 1449 1446 1440 1432 1429 1429 1431 1431 1431 1430 1429 1430 1430 1430 1430 1430 1430 1431 1431 1431 1430 1429 1429 1428 1428 1428 1428 1428 1427 1426 1426 1425 1424 1423 1423 1423 1424 1425 1425 1425 1425 1424
1482 1481 1481 1480 1480 1479 1479 1478 1478 1477 1477 1476 1476 1476 1476 1475 1475 1474 1473 1473 1472 1471 1470 1469 1467 1466 1465 1464 1462 1460 1458 1457 1458 1459 1459 1458 1455 1453 1452 1451 1450 1448 1447 1447 1446 1445 1442 1436 1431 1428 1427 1428 1428 1428 1427 1427 1427 1428 1428 1428 1428 1428 1428 1428 1428 1427 1426 1426 1425 1425 1425 1425 1425 1424 1424 1423 1422 1421 1421 1421 1421 1422 1422 1422 1422 1422
1479 1479 1478 1478 1477 1476 1476 1476 1475 1475 1474 1474 1473 1473 1473 1472 1472 1471 1471 1471 1470 1470 1469 1467 1466 1464 1463 1461 1460 1458 1456 1456 1456 1457 1457 1456 1454 1451 1451 1450 1449 1447 1446 1445 1443 1442 1440 1436 1433 1430 1426 1424 1424 1425 1425 1425 1424 1425 1426 1426 1426 1426 1426 1426 1426 1425 1424 1423 1422 1422 1422 1422 1422 1422 1421 1421 1420 1419 1419 1419 1419 1419 1419 1420 1419 1419
1477 1476 1476 1475 1475 1474 1473 1473 1472 1472 1471 1471 1471 1471 1470 1470 1469 1469 1468 1468 1468 1467 1467 1466 1464 1463 1461 1460 1458 1456 1454 1454 1455 1456 1456 1455 1452 1451 1449 1447 1447 1446 1446 1443 1441 1440 1438 1435 1433 1431 1428 1423 1421 1421 1423 1423 1422 1422 1423 1424 1424 1424 1424 1424 1424 1423 1421 1421 1420 1420 1419 1419 1419 1419 1419 1418 1418 1417 1417 1416 1416 1416 1416 1416 1417 1417
1475 1474 1473 1473 1472 1471 1471 1470 1470 1469 1469 1468 1468 1468 1468 1467 1467 1466 1466 1466 1465 1465 1464 1463 1462 1461 1460 1458 1456 1454 1452 1452 1453 1454 1454 1453 1451 1450 1447 1445 1445 1445 1445 1442 1440 1439 1437 1434 1431 1430 1429 1425 1421 1419 1419 1420 1421 1420 1420 1421 1421 1422 1422 1422 1422 1421 1420 1419 1418 1417 1417 1417 1416 1416 1416 1416 1416 1415 1414 1414 1414 1414 1414 1414 1415 1415
1473 1472 1471 1471 1471 1470 1469 1468 1468 1467 1467 1466 1466 1466 1466 1465 1465 1464 1464 1463 1463 1462 1461 1461 1460 1459 1458 1456 1455 1453 1451 1451 1451 1452 1452 1451 1450 1449 1446 1444 1443 1443 1443 1441 1440 1438 1437 1434 1431 1429 1427 1425 1422 1419 1417 1417 1417 1417 1417 1417 1418 1418 1419 1419 1419 1419 1418 1417 1416 1415 1415 1414 1414 1413 1413 1413 1413 1413 1412 1412 1412 1412 1412 1412 1412 1413
1471 1470 1469 1469 1468 1468 1467 1466 1465 1465 1465 1464 1463 1463 1463 1463 1462 1461 1461 1460 1460 1459 1458 1457 1456 1456 1455 1454 1452 1451 1450 1450 1449 1449 1449 1449 1448 1446 1445 1442 1441 1441 1441 1440 1438 1437 1436 1434 1431 1428 1426 1423 1422 1420 1418 1416 1415 1414 1413 1414 1414 1415 1415 1416 1416 1416 1416 1415 1414 1413 1412 1412 1411 1411 1411 1411 1411 1410 1410 1410 1410 1410 1409 1410 1410 1410
1469 1468 1467 1466 1466 1465 1464 1463 1462 1462 1462 1461 1461 1461 1460 1460 1459 1458 1458 1457 1456 1456 1455 1454 1453 1452 1451 1451 1450 1449 1448 1447 1447 1446 1446 1445 1445 1444 1442 1441 1439 1438 1438 1438 1437 1436 1435 1433 1431 1428 1426 1423 1420 1418 1417 1416 1415 1413 1411 1411 1411 1411 1412 1413 1413 1413 1413 1413 1412 1411 1410 1410 1409 1409 1408 1408 1408 1408 1407 1407 1407 1407 1407 1407 1407 1407
1466 1465 1464 1464 1463 1462 1461 1461 1460 1460 1460 1459 1458 1458 1457 1457 1456 1455 1454 1454 1453 1453 1452 1451 1450 1449 1448 1447 1447 1446 1446 1445 1444 1443 1443 1442 1441 1441 1440 1439 1437 1436 1436 1436 1435 1433 1432 1431 1428 1426 1426 1423 1420 1417 1416 1415 1414 1413 1412 1410 1407 1406 1408 1410 1411 1411 1410 1410 1410 1409 1408 1407 1407 1406 1406 1405 1405 1405 1405 1405 1405 1405 1405 1405 1404 1404
1464 1463 1462 1461 1461 1460 1459 1458 1458 1458 1458 1457 1456 1456 1455 1454 1453 1452 1451 1451 1450 1449 1448 1447 1446 1445 1444 1444 1444 1443 1443 1442 1441 1440 1440 1439 1439 1439 1438 1437 1436 1434 1434 1432 1431 1430 1429 1428 1426 1425 1423 1422 1420 1417 1415 1414 1413 1413 1412 1410 1406 1405 1405 1406 1407 1408 1407 1407 1407 1406 1406 1405 1404 1404 1403 1403 1402 1402 1402 1403 1402 1402 1403 1402 1402 1402
1462 1461 1460 1459 1458 1458 1457 1457 1456 1456 1456 1455 1454 1453 1452 1452 1451 1450 1448 1447 1446 1445 1445 1444 1443 1441 1440 1439 1439 1439 1439 1438 1438 1437 1436 1436 1436 1435 1434 1433 1432 1431 1431 1430 1428 1426 1426 1426 1425 1423 1421 1421 1419 1417 1414 1412 1411 1411 1411 1409 1406 1404 1403 1402 1404 1405 1405 1404 1404 1404 1404 1403 1402 1401 1401 1400 1399 1399 1400 1400 1400 1400 1400 1400 1400 1400
1460 1459 1458 1457 1457 1456 1456 1455 1455 1454 1453 1452 1451 1450 1450 1449 1449 1447 1446 1444 1443 1442 1441 1441 1440 1439 1437 1435 1434 1434 1434 1434 1434 1434 1433 1433 1432 1432 1431 1431 1430 1429 1429 1427 1426 1424 1423 1423 1422 1421 1419 1419 1418 1416 1412 1410 1409 1409 1408 1407 1407 1405 1402 1399 1400 1402 1403 1402 1401 1401 1401 1400 1400 1399 1398 1397 1396 1396 1396 1397 1397 1397 1397 1397 1397 1397
1457 1456 1456 1456 1455 1455 1454 1453 1452 1451 1450 1449 1448 1447 1446 1446 1446 1445 1443 1441 1440 1439 1439 1438 1437 1436 1435 1433 1432 1431 1431 1431 1430 1430 1430 1430 1430 1429 1429 1428 1428 1427 1427 1426 1425 1423 1421 1421 1420 1418 1418 1418 1416 1414 1411 1409 1408 1407 1406 1406 1406 1405 1402 1399 1398 1399 1400 1399 1398 1398 1398 1398 1397 1396 1395 1394 1394 1393 1394 1394 1394 1394 1395 1395 1395 1395
1455 1454 1454 1453 1452 1451 1451 1450 1449 1448 1447 1446 1445 1444 1443 1442 1442 1441 1440 1438 1437 1436 1436 1436 1435 1434 1432 1431 1430 1430 1428 1427 1427 1427 1427 1427 1426 1426 1426 1426 1425 1424 1424 1423 1422 1421 1420 1419 1417 1416 1416 1415 1414 1411 1409 1408 1406 1405 1403 1403 1403 1402 1400 1398 1398 1398 1396 1396 1396 1396 1396 1396 1395 1394 1392 1391 1390 1390 1390 1391 1391 1391 1391 1392 1392 1392
1453 1452 1451 1450 1450 1449 1448 1447 1446 1445 1444 1443 1442 1441 1440 1440 1439 1438 1437 1436 1436 1435 1434 1434 1434 1432 1431 1429 1428 1428 1426 1425 1424 1423 1424 1424 1424 1423 1423 1423 1422 1421 1421 1419 1418 1418 1417 1416 1415 1414 1413 1412 1410 1408 1407 1406 1406 1403 1401 1401 1401 1400 1397 1397 1396 1396 1395 1394 1393 1393 1393 1393 1393 1391 1390 1388 1387 1387 1387 1387 1388 1388 1388 1389 1389 1389
1451 1450 1449 1448 1447 1446 1445 1444 1444 1443 1441 1440 1439 1438 1438 1437 1437 1436 1435 1435 1434 1434 1433 1433 1432 1431 1430 1429 1428 1426 1425 1423 1421 1421 1421 1421 1420 1420 1420 1419 1419 1418 1417 1416 1416 1415 1414 1413 1412 1412 1411 1410 1408 1406 1404 1405 1404 1402 1399 1399 1398 1397 1396 1394 1394 1394 1393 1393 1391 1391 1391 1391 1390 1388 1387 1386 1385 1384 1384 1384 1385 1385 1386 1386 1386 1386
1448 1447 1446 1446 1445 1444 1443 1442 1441 1441 1439 1438 1437 1436 1436 1436 1435 1435 1434 1434 1434 1434 1433 1432 1431 1430 1428 1426 1426 1425 1424 1422 1420 1419 1419 1418 1418 1417 1417 1416 1416 1416 1415 1414 1413 1412 1411 1410 1410 1410 1409 1408 1406 1404 1402 1402 1401 1400 1398 1397 1397 1396 1393 1392 1391 1392 1391 1391 1390 1389 1389 1389 1387 1386 1385 1384 1383 1382 1381 1381 1381 1382 1383 1383 1383 1383
1446 1445 1444 1443 1442 1441 1440 1439 1439 1438 1437 1436 1435 1435 1434 1434 1434 1434 1433 1433 1432 1431 1430 1429 1428 1427 1426 1424 1423 1423 1423 1422 1421 1420 1419 1418 1417 1416 1416 1415 1414 1414 1413 1411 1411 1410 1408 1407 1406 1405 1405 1405 1404 1402 1400 1399 1398 1397 1396 1396 1395 1393 1391 1390 1389 1389 1389 1388 1387 1387 1387 1386 1385 1385 1384 1383 1381 1379 1378 1378 1378 1379 1380 1380 1381 1381
1442 1441 1441 1440 1439 1438 1437 1437 1436 1436 1435 1434 1433 1433 1432 1432 1431 1431 1431 1430 1429 1428 1427 1426 1426 1425 1423 1422 1421 1421 1421 1420 1419 1418 1417 1416 1416 1415 1413 1412 1412 1411 1410 1409 1408 1407 1406 1404 1402 1401 1401 1401 1401 1400 1398 1397 1396 1396 1395 1394 1392 1391 1390 1389 1387 1387 1386 1386 1385 1384 1384 1383 1383 1382 1382 1381 1379 1377 1376 1376 1375 1376 1376 1377 1378 1378
1439 1438 1438 1437 1436 1436 1435 1434 1434 1433 1432 1431 1431 1430 1430 1429 1429 1428 1427 1427 1426 1425 1424 1424 1423 1422 1421 1420 1419 1419 1418 1417 1416 1415 1414 1413 1413 1412 1411 1410 1410 1410 1409 1407 1406 1405 1404 1403 1401 1399 1398 1398 1398 1398 1397 1396 1395 1394 1393 1391 1390 1390 1389 1387 1386 1385 1384 1384 1383 1382 1381 1381 1380 1380 1380 1379 1378 1376 1375 1373 1372 1372 1373 1375 1375 1375